Regional Weather Roundup
Issued by NWS Sterling, VA

Home | Current Version | Previous Version | Graphics & Text | Print | Product List | Glossary On
Versions: 1 2 3 4 5 6 7 8 9 10 11 12 13 14 15 16 17 18 19 20 21 22 23 24 25 26 27
000
ASUS41 KLWX 230710
RWRLWX

REGIONAL WEATHER ROUNDUP
NATIONAL WEATHER SERVICE BALTIMORE MD/WASHINGTON DC
200 AM EST MON JAN 23 2017

Note: "FAIR" indicates few or no clouds below 12,000 feet
with no significant weather and/or obstructions to visibility.
 TC=TEMPERATURE CELSIUS

 * =Non NWS site. Station does not report precipitation (e.g. rain,
    snow, etc.), thunder, or fog.

DCZ001-MDZ009-015-VAZ040>042-051-053>054-230800-
WASHINGTON METRO

CITY           SKY/WX    TMP DP  RH WIND       PRES   REMARKS
WASHINGTON NAT LGT RAIN  50  48  93 NE21G26   29.59F
DULLES         DRIZZLE   49  46  90 E15G31    29.58F
ANDREWS AFB    CLOUDY    48  48 100 E20G30    29.56F
FT BELVOIR     CLOUDY    50  48  93 E8G18     29.57R
QUANTICO       CLOUDY    50  49  96 E17       29.58S VSB 1
COLLEGE PARK*  CLOUDY    46  45  93 NE14G21   29.60S
LEESBURG*      CLOUDY    50  50 100 E9G21     29.60S
GAITHERSBURG*  CLOUDY    46  43  87 NE9G24    29.63F

$$

MDZ006>007-011-014-230800-
BALTIMORE METRO

CITY           SKY/WX    TMP DP  RH WIND       PRES   REMARKS
BWI AIRPORT    LGT RAIN  47  47 100 E21G30    29.62F FOG
MD SCIENCE CTR   N/A     48  44  86 MISG      29.63S
ANNAPOLIS      CLOUDY    49  48  97 NE16G23   29.60F FOG
FORT MEADE*    CLOUDY    45  45 100 NE12G17   29.63F

$$

MDZ012-015-019>023-230800-
MARYLAND EASTERN SHORE

CITY           SKY/WX    TMP DP  RH WIND       PRES   REMARKS
OCEAN CITY     LGT RAIN  48  48 100 NE17G26   29.59R FOG
SALISBURY      LGT RAIN  50  48  93 E20G29    29.57R FOG
BAY BRIDGE AP* CLOUDY    48  46  93 E12G23    29.60F FOG
CAMBRIDGE*     CLOUDY    48  46  93 NE15G25   29.57R
EASTON*        CLOUDY    49  47  90 E20G32    29.63F FOG

$$

MDZ017>025-230800-
SOUTHERN MARYLAND

CITY           SKY/WX    TMP DP  RH WIND       PRES   REMARKS
PATUXENT RIVER CLOUDY    49  48  97 E21       29.55F
ST INIGOES     CLOUDY    50  48  93 NE18G28   29.53F
LEONARDTOWN*   CLOUDY    48  46  93 E10G21    29.56F

$$

MDZ003>005-230800-
NORTH CENTRAL MARYLAND

CITY           SKY/WX    TMP DP  RH WIND       PRES   REMARKS
FREDERICK*     LGT RAIN  48  48 100 E13G23    29.64S
HAGERSTOWN APT CLOUDY    50  46  86 E16       29.61S
WESTMINSTER*     N/A     45  45 100 E18G29    29.61F

$$

MDZ501>502-230800-
WESTERN MARYLAND

CITY           SKY/WX    TMP DP  RH WIND       PRES   REMARKS
OAKLAND*         N/A     41  41 100 E22G30    29.48F FOG
CUMBERLAND*    CLOUDY    50  50 100 NE3       29.62S

$$

VAZ025>031-230800-
SHENANDOAH VALLEY

CITY           SKY/WX    TMP DP  RH WIND       PRES   REMARKS
WINCHESTER*    DRIZZLE   46  46 100 E7        29.57F
FRONT ROYAL*   CLOUDY    46  46 100 NE3       29.55F
LURAY*         HVY RAIN  46  46 100 N8        29.53F
NEW MARKET*    CLOUDY    47  45  94 N10G18    29.51F
STAUNTON*      CLOUDY    46  46  99 N7        29.51F FOG
WAYNESBORO*    CLOUDY    46  45  96 E9        29.49F

$$

WVZ021-048>050-054>055-230800-
EASTERN WEST VIRGINIA PANHANDLE

CITY           SKY/WX    TMP DP  RH WIND       PRES   REMARKS
MARTINSBURG    LGT RAIN  49  47  93 NE7       29.59F FOG
PETERSBURG*    RAIN      47  46  97 NW3       29.55S

$$

VAZ036>039-050-230800-
CENTRAL FOOTHILLS

CITY           SKY/WX    TMP DP  RH WIND       PRES   REMARKS
CHARLOTTESVILL LGT RAIN  50  48  93 NE13      29.50F FOG
CULPEPER*      DRIZZLE   51  50  97 E7        29.57R
ORANGE*        RAIN      50  50 100 NE8       29.55S
GORDONSVILLE*  CLOUDY    49  49 100 NE8       29.51F FOG
WARRENTON*     CLOUDY    51  48  88 E10G16    29.56R FOG

$$

VAZ055>057-230800-
NORTH AND CENTRAL PIEDMONT

CITY           SKY/WX    TMP DP  RH WIND       PRES   REMARKS
FREDERICKSBRG* CLOUDY    50  50 100 E10G17    29.56R FOG
STAFFORD*      CLOUDY    49  49 100 E13G18    29.61R FOG

$$

NCZ024-NYZ072-PAZ021-071-VAZ022-071-230800-
OTHER REGIONAL OBSERVATIONS

CITY           SKY/WX    TMP DP  RH WIND       PRES   REMARKS
NEW YORK CITY  CLOUDY    43  40  89 E9G22     29.85R
PHILADELPHIA   CLOUDY    45  42  89 E15G26    29.73R
PITTSBURGH     CLOUDY    49  47  93 E13       29.52F
ROANOKE        RAIN      50  47  89 NE7       29.41F
RICHMOND       CLOUDY    50  50 100 NE14      29.47F FOG
RALEIGH        CLOUDY    52  51  97 E13       29.32F FOG

$$

ANZ530>537-230800-
MARINE OBSERVATIONS

STATION/POSITION TIME  TEMP    WIND        PRES
                       AIR SEA DIR/SP/G
                 (UTC) (F)     (DEG/KT/KT) (MB)
THOMAS PT LIGHT  0700   48 40   60/ 22/ 24   N/A
BALT KEY BRIDGE  0648   46      50/ 17/ 20 1003.2F
COVE POINT       0648   47     100/ 19/ 25 1001.9R
LEWISETTA        0642   47 44   70/ 15/ 19  999.6F
SOLOMONS ISLAND  0648   49 42   60/ 19/ 23   N/A
PINEY POINT      0648           80/ 14/ 19   N/A

$$





USA.gov is the U.S. government's official web portal to all federal, state and local government web resources and services.